{"data":{"norad_id":59893,"intl_designator":"2024-100J","name":"STARLINK-31963","alt_names":[],"object_type":"PAYLOAD","status":"ACTIVE","operator":null,"country":"US","launch_date":"2024-05-28","launch_site_code":"AFETR","launch_vehicle":null,"mission":null,"orbit_class":"UNKNOWN","rcs_meters":null,"size_class":null,"mass_kg":null,"dimensions":null,"purposes":["comms"],"wikipedia_slug":null,"has_3d_model":false,"image_url":null,"decayed_at":null,"tle_current":{"epoch":"2026-09-21T21:40:51.829824Z","epoch_age_seconds":53221,"freshness":"FRESH","line1":"1 59893U 24100J   26264.90337766 -.00001897  00000+0 -59445-4 0  9999","line2":"2 59893  43.0043  97.4220 0001428 284.4050  75.6643 15.27559709131165","mean_motion":15.27559709,"eccentricity":0.0001428,"inclination_deg":43.0043,"raan_deg":97.422,"arg_perigee_deg":284.405,"mean_anomaly_deg":75.6643,"bstar":-5.9445e-5,"rev_number":13116,"period_min":94.268000885064,"perigee_km":482.13006921493,"apogee_km":484.08964131679,"semimajor_km":6861.2468552659,"source":"CELESTRAK","updated_at":"2026-09-22T09:00:49.107171Z"}}}